Tiempo cada hora Munchenstein

Hoy, 22 Octubre, Jueves

Tiempo Temperatura Precipitaciones Viento Presión Humedad
00:00 +13°C° 0 mm 1 mps 727 mmHg 76%
01:00 +12°C° 0 mm 1 mps 727 mmHg 77%
02:00 +12°C° 0 mm 1 mps 727 mmHg 77%
03:00 +12°C° 0 mm 1 mps 727 mmHg 77%
04:00 +12°C° 0 mm 1 mps 727 mmHg 77%
05:00 +12°C° 0 mm 1 mps 727 mmHg 78%
06:00 +11°C° 0 mm 1 mps 727 mmHg 78%
07:00 +11°C° 0 mm 1 mps 727 mmHg 78%
08:00 +13°C° 0 mm 1 mps 727 mmHg 73%
09:00 +14°C° 0 mm 1 mps 728 mmHg 69%
10:00 +16°C° 0 mm 1 mps 728 mmHg 65%
11:00 +18°C° 0 mm 1 mps 728 mmHg 62%
12:00 +19°C° 0 mm 1 mps 728 mmHg 60%
13:00 +20°C° 0 mm 1 mps 728 mmHg 57%
14:00 +19°C° 0.1 mm 1 mps 728 mmHg 63%
15:00 +17°C° 0.1 mm 2 mps 728 mmHg 69%
16:00 +16°C° 0.1 mm 2 mps 727 mmHg 75%
17:00 +16°C° 0.3 mm 2 mps 727 mmHg 79%
18:00 +15°C° 0.3 mm 2 mps 727 mmHg 83%
19:00 +15°C° 0.3 mm 2 mps 727 mmHg 86%
20:00 +14°C° 0 mm 1 mps 727 mmHg 87%
21:00 +14°C° 0 mm 1 mps 727 mmHg 87%
22:00 +14°C° 0 mm 1 mps 727 mmHg 88%
23:00 +14°C° 0.1 mm 1 mps 727 mmHg 88%

Mañana, 23 Octubre, Viernes

Tiempo Temperatura Precipitaciones Viento Presión Humedad
00:00 +14°C° 0.1 mm 1 mps 727 mmHg 89%
01:00 +14°C° 0.1 mm 1 mps 727 mmHg 89%
02:00 +14°C° 1.4 mm 1 mps 726 mmHg 92%
03:00 +13°C° 1.4 mm 1 mps 726 mmHg 94%
04:00 +13°C° 1.4 mm 1 mps 726 mmHg 97%
05:00 +13°C° 1.9 mm 1 mps 726 mmHg 97%
06:00 +13°C° 1.9 mm 1 mps 725 mmHg 97%
07:00 +13°C° 1.9 mm 1 mps 725 mmHg 98%
08:00 +13°C° 1.9 mm 1 mps 725 mmHg 98%
09:00 +13°C° 1.9 mm 1 mps 725 mmHg 98%
10:00 +13°C° 1.9 mm 1 mps 725 mmHg 98%
11:00 +14°C° 1.6 mm 1 mps 724 mmHg 97%
12:00 +14°C° 1.6 mm 1 mps 724 mmHg 97%
13:00 +14°C° 1.6 mm 1 mps 724 mmHg 97%
14:00 +14°C° 2.8 mm 2 mps 724 mmHg 97%
15:00 +14°C° 2.8 mm 2 mps 725 mmHg 96%
16:00 +13°C° 2.8 mm 3 mps 725 mmHg 96%
17:00 +14°C° 1.7 mm 2 mps 725 mmHg 96%
18:00 +14°C° 1.7 mm 2 mps 726 mmHg 95%
19:00 +13°C° 1.7 mm 2 mps 726 mmHg 94%
20:00 +13°C° 0 mm 2 mps 727 mmHg 95%
21:00 +12°C° 0 mm 1 mps 727 mmHg 95%
22:00 +12°C° 0 mm 1 mps 728 mmHg 95%
23:00 +12°C° 0.2 mm 1 mps 728 mmHg 95%

Pasado mañana, 24 Octubre, Sábado

Tiempo Temperatura Precipitaciones Viento Presión Humedad
00:00 +12°C° 0.2 mm 1 mps 728 mmHg 95%
01:00 +12°C° 0.2 mm 1 mps 728 mmHg 95%
02:00 +12°C° 0 mm 1 mps 728 mmHg 95%
03:00 +12°C° 0 mm 1 mps 728 mmHg 95%
04:00 +12°C° 0 mm 1 mps 728 mmHg 95%
05:00 +12°C° 0 mm 1 mps 729 mmHg 95%
06:00 +11°C° 0 mm 1 mps 729 mmHg 95%
07:00 +11°C° 0 mm 1 mps 729 mmHg 95%
08:00 +12°C° 0 mm 1 mps 729 mmHg 93%
09:00 +13°C° 0 mm 1 mps 729 mmHg 91%
10:00 +13°C° 0 mm 1 mps 730 mmHg 89%
11:00 +14°C° 0.1 mm 1 mps 729 mmHg 85%
12:00 +15°C° 0.1 mm 2 mps 729 mmHg 81%
13:00 +15°C° 0.1 mm 2 mps 729 mmHg 77%
14:00 +15°C° 0 mm 1 mps 729 mmHg 78%
15:00 +15°C° 0 mm 1 mps 728 mmHg 78%
16:00 +15°C° 0 mm 1 mps 728 mmHg 79%
17:00 +14°C° 0 mm 1 mps 728 mmHg 83%
18:00 +11°C° 0 mm 0 mps 728 mmHg 88%
19:00 +10°C° 0 mm 0 mps 728 mmHg 92%
20:00 +9°C° 0 mm 0 mps 728 mmHg 93%
21:00 +9°C° 0 mm 0 mps 727 mmHg 93%
22:00 +10°C° 0 mm 1 mps 727 mmHg 93%
23:00 +10°C° 0 mm 1 mps 727 mmHg 94%

, 25 Octubre, Domingo

Tiempo Temperatura Precipitaciones Viento Presión Humedad
00:00 +10°C° 0 mm 1 mps 727 mmHg 94%
01:00 +9°C° 0 mm 1 mps 726 mmHg 94%
02:00 +9°C° 0 mm 1 mps 726 mmHg 94%
03:00 +9°C° 0 mm 1 mps 726 mmHg 94%
04:00 +9°C° 0 mm 1 mps 726 mmHg 95%
05:00 +9°C° 0 mm 1 mps 725 mmHg 95%
06:00 +9°C° 0 mm 1 mps 725 mmHg 95%
07:00 +8°C° 0 mm 1 mps 725 mmHg 95%
08:00 +10°C° 0 mm 1 mps 725 mmHg 90%
09:00 +12°C° 0 mm 1 mps 724 mmHg 86%
10:00 +13°C° 0 mm 1 mps 724 mmHg 81%
11:00 +15°C° 0 mm 1 mps 724 mmHg 74%
12:00 +18°C° 0 mm 1 mps 723 mmHg 67%
13:00 +19°C° 0 mm 1 mps 723 mmHg 59%
14:00 +19°C° 0 mm 1 mps 722 mmHg 63%
15:00 +18°C° 0 mm 1 mps 722 mmHg 66%
16:00 +18°C° 0 mm 1 mps 721 mmHg 70%
17:00 +15°C° 0 mm 1 mps 721 mmHg 75%
18:00 +13°C° 0 mm 1 mps 721 mmHg 80%
19:00 +11°C° 0 mm 1 mps 721 mmHg 85%
20:00 +11°C° 0 mm 1 mps 721 mmHg 86%
21:00 +11°C° 0 mm 1 mps 721 mmHg 87%
22:00 +11°C° 0 mm 1 mps 720 mmHg 88%
23:00 +11°C° 0 mm 1 mps 720 mmHg 87%

25 Octubre, Domingo

Tiempo Temperatura Precipitaciones Viento Presión Humedad
00:00 +10°C° 0 mm 1 mps 727 mmHg 94%
01:00 +9°C° 0 mm 1 mps 726 mmHg 94%
02:00 +9°C° 0 mm 1 mps 726 mmHg 94%
03:00 +9°C° 0 mm 1 mps 726 mmHg 94%
04:00 +9°C° 0 mm 1 mps 726 mmHg 95%
05:00 +9°C° 0 mm 1 mps 725 mmHg 95%
06:00 +9°C° 0 mm 1 mps 725 mmHg 95%
07:00 +8°C° 0 mm 1 mps 725 mmHg 95%
08:00 +10°C° 0 mm 1 mps 725 mmHg 90%
09:00 +12°C° 0 mm 1 mps 724 mmHg 86%
10:00 +13°C° 0 mm 1 mps 724 mmHg 81%
11:00 +15°C° 0 mm 1 mps 724 mmHg 74%
12:00 +18°C° 0 mm 1 mps 723 mmHg 67%
13:00 +19°C° 0 mm 1 mps 723 mmHg 59%
14:00 +19°C° 0 mm 1 mps 722 mmHg 63%
15:00 +18°C° 0 mm 1 mps 722 mmHg 66%
16:00 +18°C° 0 mm 1 mps 721 mmHg 70%
17:00 +15°C° 0 mm 1 mps 721 mmHg 75%
18:00 +13°C° 0 mm 1 mps 721 mmHg 80%
19:00 +11°C° 0 mm 1 mps 721 mmHg 85%
20:00 +11°C° 0 mm 1 mps 721 mmHg 86%
21:00 +11°C° 0 mm 1 mps 721 mmHg 87%
22:00 +11°C° 0 mm 1 mps 720 mmHg 88%
23:00 +11°C° 0 mm 1 mps 720 mmHg 87%

26 Octubre, Lunes

Tiempo Temperatura Precipitaciones Viento Presión Humedad
00:00 +11°C° 0 mm 1 mps 720 mmHg 87%
01:00 +11°C° 0 mm 1 mps 720 mmHg 86%
02:00 +11°C° 0.1 mm 1 mps 719 mmHg 88%
03:00 +9°C° 0.1 mm 2 mps 719 mmHg 90%
04:00 +9°C° 0.1 mm 2 mps 719 mmHg 92%
05:00 +9°C° 0.7 mm 3 mps 719 mmHg 92%
06:00 +8°C° 0.7 mm 3 mps 719 mmHg 92%
07:00 +7°C° 0.7 mm 4 mps 719 mmHg 92%
08:00 +8°C° 1.6 mm 3 mps 719 mmHg 93%
09:00 +7°C° 1.6 mm 3 mps 719 mmHg 93%
10:00 +7°C° 1.6 mm 3 mps 719 mmHg 94%
11:00 +7°C° 1 mm 3 mps 719 mmHg 93%
12:00 +7°C° 1 mm 3 mps 719 mmHg 93%
13:00 +8°C° 1 mm 3 mps 719 mmHg 92%
14:00 +7°C° 1 mm 2 mps 719 mmHg 93%
15:00 +7°C° 1 mm 2 mps 719 mmHg 93%
16:00 +8°C° 1 mm 1 mps 719 mmHg 93%
17:00 +8°C° 1.2 mm 1 mps 719 mmHg 94%
18:00 +8°C° 1.2 mm 1 mps 720 mmHg 94%
19:00 +8°C° 1.2 mm 1 mps 720 mmHg 95%
20:00 +8°C° 0.7 mm 1 mps 720 mmHg 94%
21:00 +8°C° 0.7 mm 1 mps 720 mmHg 94%
22:00 +7°C° 0.7 mm 1 mps 720 mmHg 93%
23:00 +6°C° 0.6 mm 0 mps 720 mmHg 93%

27 Octubre, Martes

Tiempo Temperatura Precipitaciones Viento Presión Humedad
00:00 +6°C° 0.6 mm 0 mps 721 mmHg 93%
01:00 +6°C° 0.6 mm 0 mps 721 mmHg 94%
02:00 +7°C° 0.2 mm 1 mps 721 mmHg 94%
03:00 +7°C° 0.2 mm 1 mps 721 mmHg 94%
04:00 +7°C° 0.2 mm 1 mps 721 mmHg 94%
05:00 +7°C° 0.1 mm 1 mps 721 mmHg 95%
06:00 +7°C° 0.1 mm 1 mps 722 mmHg 95%
07:00 +7°C° 0.1 mm 1 mps 722 mmHg 95%
08:00 +7°C° 0.1 mm 1 mps 722 mmHg 95%
09:00 +8°C° 0.1 mm 1 mps 722 mmHg 94%
10:00 +8°C° 0.1 mm 1 mps 723 mmHg 93%
11:00 +8°C° 0.2 mm 1 mps 723 mmHg 92%
12:00 +8°C° 0.2 mm 1 mps 723 mmHg 90%
13:00 +9°C° 0.2 mm 1 mps 723 mmHg 88%
14:00 +8°C° 0.1 mm 2 mps 724 mmHg 88%
15:00 +8°C° 0.1 mm 2 mps 724 mmHg 87%
16:00 +8°C° 0.1 mm 2 mps 724 mmHg 87%
17:00 +9°C° 0 mm 1 mps 724 mmHg 88%
18:00 +8°C° 0 mm 1 mps 725 mmHg 89%
19:00 +7°C° 0 mm 1 mps 725 mmHg 90%
20:00 +7°C° 0 mm 1 mps 725 mmHg 91%
21:00 +6°C° 0 mm 1 mps 725 mmHg 91%
22:00 +6°C° 0 mm 1 mps 726 mmHg 92%
23:00 +6°C° 0 mm 1 mps 726 mmHg 92%
Mostrar más

Necesitamos Su Consentimiento

Meteoprog y nuestros Proveedores de Servicios pueden almacenar y acceder a sus datos personales como cookies, identificadores de dispositivo u otras tecnologías similares de su dispositivo y procesar dichos datos para personalizar contenido y anuncios, además de ofrecer funciones de redes sociales y analizar el tráfico.

  • Almacenar y/o acceder a información en su dispositivo

    Se puede almacenar o acceder a cookies, identificadores de dispositivo u otra información de su dispositivo para los fines anteriormente indicados.

  • Anuncios y contenido personalizados, medición de anuncios y contenido, percepciones del público, y desarrollo de productos

    Los anuncios y el contenido pueden personalizarse en base a su perfil. Se pueden añadir más datos para personalizar mejor los anuncios y contenidos. Se puede medir el rendimiento de los anuncios y contenidos. Se puede obtener la percepción sobre el público que ha visto los anuncios y contenidos. Dichos datos pueden usarse para desarrollar o mejorar la experiencia del usuario, sistemas y software.

Al hacer clic en ‘Estoy De Acuerdo’ usted permitirá el uso de las cookies, identificadores de dispositivo, balizas web u otras tecnologías similares indicadas. Su configuración puede cambiarse desde el navegador de su dispositivo.

Para ciertos fines, los intereses legítimos pueden ser considerados por encima del consentimiento. Puede leer más sobre ello en nuestra Política de Privacidad y Cookies.